Location: Schaftelen
(46.7167°N, 8.3333°E)
Time: 12:34:04
(UTC+00:00)

Daily predictions for brighter satellites

Satellite Brightness Start Highest point End
(mag) Time Altitude Azimuth Time Altitude Azimuth Time Altitude Azimuth
Cosmos 1515 Rocket 4.0 19:15:42 10° NNW 19:20:09 69° W 19:24:35 10° S
Cosmos 389 Rocket 3.2 19:17:16 10° N 19:20:26 34° ENE 19:23:36 10° SE
SPOT 3 Rocket 3.7 19:16:28 10° SSE 19:21:34 59° ENE 19:26:41 10° N
Cosmos 1812 3.5 19:18:50 10° N 19:22:21 33° ENE 19:25:51 10° SE
Cosmos 1727 Rocket 4.1 19:16:11 10° N 19:22:34 71° E 19:28:54 10° SSE
Cosmos 2251 Rocket 3.5 19:17:56 10° SSW 19:23:11 80° ESE 19:28:30 10° NNE
Cosmos 1656 3.7 19:21:49 10° NNW 19:27:17 69° ENE 19:32:48 10° SE
Cosmos 1633 3.6 19:27:27 10° SSW 19:30:53 49° WNW 19:34:21 10° N
Cosmos 1707 Rocket 4.5 19:27:54 10° N 19:31:47 31° ENE 19:35:38 10° SE
Cosmos 220 Rocket 4.3 19:27:47 10° NNW 19:31:53 48° ENE 19:35:58 10° SE
Resurs 01 Rocket 2.0 19:28:25 10° SE 19:32:40 49° ENE 19:36:58 10° N
Cosmos 972 Rocket 3.9 19:28:45 10° NNW 19:33:48 88° WSW 19:38:41 10° SSE
Cosmos 1441 Rocket 3.6 19:34:30 10° SSE 19:38:06 42° E 19:41:41 10° NNE
IRIDIUM 114 4.4 19:35:34 10° S 19:40:42 64° E 19:45:53 10° N
Cosmos 614 Rocket 4.1 19:36:44 10° S 19:41:42 51° ESE 19:46:44 10° NNE
Cosmos 1900 4.4 19:40:04 10° SSW 19:45:00 89° SE 19:50:04 10° NE
USA 267 3.3 19:41:52 10° ENE 19:48:21 61° SE 19:54:49 10° SW
IRIDIUM 103 4.3 19:44:38 10° S 19:49:50 76° E 19:55:04 10° N
GP-B 4.3 19:46:39 10° NNE 19:50:23 26° E 19:53:14 14° SE
Cosmos 1821 Rocket 4.0 19:45:58 10° S 19:52:00 64° E 19:58:10 10° NNE
COSMOS 2406 3.2 19:48:18 10° SSW 19:54:02 76° ESE 19:59:48 10° NNE
Shenzhou-11 Module 2.5 19:52:29 10° WSW 19:54:36 28° S 19:55:30 21° SE
CZ-2C R/B 3.7 19:51:49 10° NNE 19:56:29 89° WNW 20:01:02 10° SSW
SL-16 R/B 4.2 19:54:06 10° N 19:57:46 17° NE 20:01:24 10° E
Intercosmos 25 3.2 19:53:44 10° N 19:58:21 79° E 20:01:26 12° SSE
ERS-1 Rocket 4.2 19:56:08 14° ESE 19:59:32 27° ENE 20:03:44 10° N
Lacrosse 5 3.5 19:56:17 10° NW 20:00:43 29° NNE 20:05:10 10° ENE
Cosmos 1862 3.6 19:59:20 10° SSW 20:03:22 72° W 20:07:26 10° N
Cosmos 2369 3.8 19:57:46 10° NNW 20:03:31 69° ENE 20:08:05 16° SE
Sich 1 3.0 19:59:51 10° S 20:04:16 74° E 20:08:42 10° NNE
Cosmos 1818 3.6 20:02:41 10° NW 20:08:11 86° SW 20:12:24 17° SSE
BREEZE-M DEB (TANK) 2.7 20:05:13 10° W 20:08:19 47° N 20:09:54 13° ENE
Cosmos 2082 Rocket 2.6 20:03:55 10° S 20:09:14 42° ESE 20:14:34 10° NE
Cosmos 2278 4.0 20:07:08 10° NNW 20:12:47 56° ENE 20:16:44 19° SE
Cosmos 2123 Rocket 4.1 20:06:57 10° N 20:13:07 61° ENE 20:18:06 16° SSE
Meteor 2-20 4.5 20:08:44 10° N 20:14:55 71° E 20:20:07 15° SSE
Spot 2 Rocket 3.6 20:11:25 17° SSE 20:15:21 64° ENE 20:20:25 10° N
Cosmos 2322 Rocket 4.0 20:16:17 10° N 20:20:23 20° NE 20:24:25 10° E
Meteor 1-4 Rocket 2.5 20:17:20 10° N 20:20:48 60° ENE 20:22:26 27° SSE
Cosmos 2239 Rocket 4.5 20:15:12 10° S 20:21:20 90° NE 20:27:31 10° N
Cosmos 1184 Rocket 3.5 20:21:02 29° SE 20:21:52 34° E 20:24:54 10° NNE
Cosmos 1190 Rocket 4.0 20:16:47 10° S 20:22:00 68° ESE 20:27:17 10° NNE
CARTOSAT-1 4.3 20:20:05 22° ESE 20:22:13 37° ENE 20:26:13 10° N
Terra 3.0 20:21:08 19° ESE 20:23:27 27° ENE 20:27:27 10° N
USA 234 3.3 20:18:45 17° ESE 20:23:56 78° NNE 20:30:30 10° NW
CZ-2C R/B 4.2 20:19:20 10° N 20:24:01 36° WNW 20:28:44 10° SW
Cosmos 407 Rocket 3.5 20:19:36 10° SSW 20:24:56 86° ESE 20:30:16 10° NNE
Cosmos 1605 Rocket 4.3 20:21:08 17° SSE 20:25:30 45° E 20:31:16 10° NNE
Cosmos 1666 Rocket 3.4 20:21:33 10° S 20:25:52 82° E 20:30:12 10° N
Cosmos 1238 Rocket 3.4 20:28:02 24° E 20:28:02 24° E 20:30:20 10° NE
MetOp-B 4.3 20:25:44 14° S 20:30:21 75° WSW 20:35:44 10° NNW
Meteor 1-27 Rocket 4.1 20:25:40 10° NNW 20:31:33 72° W 20:36:53 13° S
Cosmos 2360 Rocket 4.4 20:31:00 10° N 20:34:19 15° NE 20:37:37 10° ENE
Cosmos 1437 Rocket 4.3 20:31:50 10° NNE 20:34:44 20° ENE 20:35:27 19° E
BREEZE-M DEB (TANK) 4.1 20:35:18 10° W 20:37:31 14° WSW 20:39:00 11° SSW
SPOT 5 3.1 20:35:54 28° ESE 20:37:41 45° ENE 20:41:51 10° N
USA 238 DEB 3.9 20:31:41 10° S 20:37:52 44° ESE 20:44:16 10° NE
USA 238 3.9 20:31:49 10° S 20:37:58 43° ESE 20:44:23 10° NE
SPOT 1/Viking Rocket 3.5 20:39:53 23° SSE 20:43:13 90° WSW 20:48:29 10° NNW
Cosmos 1980 Rocket 2.2 20:38:17 10° NNW 20:44:00 84° ENE 20:47:05 28° SSE
Cosmos 1703 Rocket 4.5 20:42:05 10° N 20:46:01 32° ENE 20:47:06 28° ESE
Cosmos 2242 Rocket 4.1 20:41:51 10° N 20:46:07 44° ENE 20:47:28 33° ESE
SL-4 R/B 1.6 20:44:11 10° WSW 20:48:06 78° SSE 20:51:35 11° ENE
Cosmos 1763 Rocket 4.4 20:43:55 10° N 20:48:52 37° ENE 20:51:08 26° ESE
BREEZE-M DEB (TANK) 3.0 20:46:21 10° W 20:49:12 65° N 20:57:08 10° E
Genesis I 3.1 20:45:42 10° NW 20:49:36 80° NE 20:50:44 44° SE
Cosmos 405 Rocket 3.0 20:49:22 40° ESE 20:49:36 40° E 20:53:07 10° NNE
Cosmos 1140 Rocket 3.7 20:45:23 10° SSW 20:50:38 75° WNW 20:55:55 10° NNE
ATLAS 5 CENTAUR R/B 3.8 20:47:26 10° WNW 20:52:30 30° WSW 20:57:17 13° S
USA 32 4.0 20:53:02 21° S 20:56:33 89° E 21:01:49 10° N
Cosmos 1633 Rocket 3.7 20:55:05 11° SSW 20:59:12 55° WNW 21:03:34 10° N
Cosmos 1697 Rocket 3.6 20:54:17 10° NW 20:59:33 42° WSW 21:03:04 19° SSW
Cosmos 1833 Rocket 3.5 20:54:29 10° SW 20:59:57 51° WNW 21:05:28 10° NNE
Cosmos 1867 3.5 21:00:54 10° SSW 21:06:20 86° SE 21:11:50 10° NE
CENTAUR R/B 2.9 21:04:45 33° SSE 21:06:25 40° ESE 21:12:42 10° NE
Meteor 1-18 Rocket 4.2 21:02:00 10° N 21:07:37 72° ENE 21:09:49 38° SSE
Okean 1-7 3.4 21:03:35 10° N 21:07:48 47° ENE 21:08:30 43° ESE
Resurs 01 Rocket 4.0 21:06:22 10° SW 21:09:27 18° W 21:12:33 10° NW
FALCON 9 DEB 3.1 21:10:18 10° WSW 21:13:47 83° NNW 21:15:22 31° ENE
Cosmos 1447 Rocket 4.5 21:08:23 10° N 21:14:47 85° E 21:17:47 34° S
Cosmos 1850 Rocket 4.3 21:14:19 42° SE 21:15:19 47° ESE 21:20:22 10° NNE
Meteor 2-4 Rocket 4.1 21:11:44 10° N 21:17:16 49° ENE 21:18:53 38° ESE
Cosmos 1515 3.7 21:14:24 10° N 21:18:13 63° E 21:18:22 62° E
Cosmos 676 Rocket 4.3 21:14:15 10° SSW 21:19:32 67° WNW 21:24:53 10° NNE
Cosmos 44 4.5 21:16:43 10° NNW 21:21:10 34° NE 21:23:08 25° E
ATLAS 5 CENTAUR R/B 3.2 21:19:03 10° NNW 21:21:34 31° NE 21:23:25 23° E
Meteor 1-25 Rocket 4.3 21:17:53 21° SSW 21:21:38 73° WNW 21:27:17 10° N
Cosmos 1470 Rocket 4.1 21:19:31 25° SSW 21:21:55 56° WNW 21:26:16 10° N
USA 267 3.9 21:24:58 10° NE 21:31:21 56° NNW 21:37:42 10° W
NOSS 3-2 (A) 3.3 21:26:41 10° SW 21:32:23 88° NW 21:38:59 10° NE
Cosmos 921 Rocket 3.4 21:30:05 10° NNW 21:34:11 49° WSW 21:34:50 44° SW
ERS-1 Rocket 3.8 21:36:08 29° SSW 21:38:07 43° W 21:42:55 10° NNW
NOSS 3-2 (C) 3.3 21:35:51 36° SSW 21:38:17 67° SE 21:44:44 10° NE
Cosmos 841 Rocket 3.8 21:35:50 10° NNW 21:40:58 52° ENE 21:42:00 45° ESE
Cosmos 540 Rocket 3.8 21:37:20 10° NNW 21:42:24 52° ENE 21:43:22 45° E
SL-16 R/B 2.2 21:37:11 10° NNW 21:42:53 75° ENE 21:44:17 52° SE
Lacrosse 5 1.9 21:39:18 10° NW 21:44:24 72° NE 21:45:31 52° E
Cosmos 468 Rocket 4.1 21:39:17 10° NNW 21:44:36 72° WSW 21:45:45 53° S
Cosmos 1741 Rocket 3.9 21:48:22 52° SSW 21:49:41 86° ESE 21:55:00 10° NNE
Cosmos 1570 Rocket 4.1 21:46:58 10° NNW 21:52:17 67° ENE 21:53:10 56° ESE
Cosmos 2082 Rocket 3.7 21:48:12 10° WSW 21:53:24 36° NW 21:58:37 10° NNE
Cosmos 2219 Rocket 4.1 21:49:22 10° N 21:53:37 21° NE 21:56:38 14° E
Cosmos 2208 Rocket 4.2 21:49:09 10° NNW 21:54:23 58° ENE 21:55:11 52° ESE
Cosmos 1814 Rocket 4.2 21:49:37 10° NNW 21:54:45 56° ENE 21:55:32 50° E
Terra 2.7 22:00:02 35° SW 22:01:01 39° W 22:05:31 10° NNW
Cosmos 2322 Rocket 2.1 21:59:31 10° NNW 22:05:15 90° NE 22:06:13 64° SSE
USA 234 4.0 22:06:06 34° SSW 22:07:19 36° SW 22:13:16 10° WNW
Cosmos 2100 Rocket 4.0 22:05:36 45° SSW 22:07:37 77° W 22:13:48 10° N
Meteor 1-11 Rocket 3.7 22:09:09 59° ESE 22:09:38 62° E 22:15:18 10° NNE
Cosmos 1437 Rocket 4.1 22:07:39 10° NNW 22:10:50 31° W 22:10:50 31° W
Cosmos 1242 Rocket 4.2 22:09:51 10° N 22:12:07 28° NE 22:12:07 28° NE
Cosmos 1869 Rocket 3.9 22:13:01 57° W 22:13:18 58° WNW 22:17:43 10° N
Cosmos 2360 Rocket 2.3 22:13:48 10° NNW 22:19:28 66° ENE 22:20:19 58° ESE
COSMOS 2428 4.3 22:15:23 10° N 22:20:16 28° NE 22:22:37 21° E
Geosat 3.9 22:20:48 70° SW 22:21:02 71° WSW 22:26:05 10° NNW
ATLAS 3B R/B 2.7 22:21:12 52° ESE 22:21:20 52° ESE 22:27:44 10° NE
Iridium 4 Rocket 3.6 22:21:45 52° W 22:21:49 52° W 22:25:59 10° N
Cosmos 2173 Rocket 4.2 22:21:11 42° SW 22:23:14 64° WNW 22:29:20 10° N
Cosmos 1500 4.4 22:25:10 38° WNW 22:25:10 38° WNW 22:28:17 10° N
CRYOSAT 2 4.2 22:21:49 10° N 22:26:44 88° W 22:26:46 88° WSW
Cosmos 1980 Rocket 4.2 22:23:55 10° WNW 22:27:13 16° W 22:28:51 14° WSW
ALOS 2 3.2 22:27:44 49° NE 22:27:44 49° NE 22:31:37 10° N
SL-4 R/B 3.2 22:24:21 10° W 22:27:13 36° NW 22:27:13 36° NW
Cosmos 1725 Rocket 3.9 22:27:19 62° S 22:28:28 82° E 22:34:49 10° N
USA 238 DEB 4.5 22:22:18 10° WSW 22:28:45 50° NW 22:35:31 10° NE
USA 238 4.5 22:22:24 10° WSW 22:28:51 50° NW 22:35:37 10° NE
SL-08 R/B 4.3 22:32:19 65° S 22:33:19 89° W 22:39:27 10° N
Cosmos 1536 3.6 22:34:39 48° N 22:34:39 48° N 22:37:36 10° N
Cosmos 1674 Rocket 4.1 22:29:36 10° N 22:33:13 51° NE 22:33:13 51° NE
Cosmos 1666 3.8 22:37:32 41° NNW 22:37:32 41° NNW 22:40:09 10° N
Cosmos 2333 Rocket 3.0 22:34:25 10° NNW 22:39:56 43° NE 22:41:19 37° E
Cosmos 2016 Rocket 4.2 22:39:51 51° SW 22:41:25 68° W 22:47:48 10° N
Cosmos 1271 Rocket 4.3 22:38:22 10° N 22:40:47 30° NE 22:40:47 30° NE
Cosmos 2061 Rocket 4.1 22:41:22 51° SW 22:42:50 67° W 22:49:02 10° N
Meteor 1-13 Rocket 4.4 22:37:29 10° NNW 22:42:53 55° W 22:43:23 53° WSW
Lacrosse 4 Rocket 3.3 22:45:23 22° ENE 22:45:23 22° ENE 22:47:10 10° NE
Cosmos 2237 Rocket 4.4 22:39:45 10° N 22:43:43 19° NE 22:47:32 10° E
MOS 1-B Rocket 4.2 22:39:43 10° N 22:45:19 58° WNW 22:46:44 45° WSW
Cosmos 2221 Rocket 4.4 22:42:37 10° NNW 22:46:29 45° WNW 22:46:29 45° WNW
Cosmos 1733 Rocket 3.5 22:50:59 60° NNW 22:50:59 60° NNW 22:54:45 10° N
Cosmos 1066 Rocket 4.1 22:47:43 10° NNW 22:53:28 78° W 22:53:46 75° SW
Meteor 1-23 Rocket 4.1 22:49:26 10° NNW 22:55:18 79° W 22:55:43 74° SW
Thor Agena Rocket 3.7 22:51:34 10° N 22:56:34 60° WNW 22:57:00 58° W
CENTAUR R/B 3.3 22:51:50 15° WSW 22:56:53 51° NW 23:03:59 10° NE
Cosmos 968 Rocket 4.1 22:59:01 45° ENE 22:59:01 45° ENE 23:03:06 10° NNE
Cosmos 44 4.2 22:57:48 10° NW 23:01:33 40° W 23:01:33 40° W
Cosmos 2233 Rocket 4.0 23:14:31 60° SW 23:15:30 70° W 23:21:51 10° N
Cosmos 1464 Rocket 4.4 23:15:36 48° ESE 23:16:09 49° E 23:22:05 10° NNE
Cosmos 1908 Rocket 4.2 23:18:33 54° NNE 23:18:33 54° NNE 23:21:58 10° N
Cosmos 2227 Rocket 4.3 23:22:42 14° E 23:22:42 14° E 23:25:05 10° ENE
Helios 1B rocket 4.5 23:19:50 10° NE 23:21:48 20° ENE 23:21:48 20° ENE
Meteor 1-21 4.5 23:19:04 10° N 23:24:50 59° ENE 23:25:21 57° E
SL-16 R/B 4.0 23:22:36 10° WNW 23:26:08 18° W 23:26:08 18° W
Lacrosse 5 3.8 23:22:50 10° WNW 23:24:41 19° W 23:24:41 19° W
Cosmos 1833 4.5 23:28:44 54° W 23:29:32 60° WNW 23:35:09 10° NNE
Cosmos 2322 3.7 23:24:05 10° NNW 23:29:31 68° W 23:29:31 68° W
Nadezhda 4 Rocket 4.4 23:30:44 10° N 23:36:55 54° ENE 23:38:04 47° ESE
Cosmos 2219 Rocket 2.1 23:32:36 10° NNW 23:38:19 84° WSW 23:38:19 84° WSW
Cosmos 1975 Rocket 3.6 23:38:45 10° N 23:42:25 58° N 23:42:25 58° N
Cosmos 1513 Rocket 4.4 23:42:38 70° SSE 23:43:22 80° E 23:49:49 10° N
Cosmos 2034 Rocket 4.2 23:43:53 54° ESE 23:44:36 58° E 23:50:46 10° NNE
Okean 2 Rocket 4.4 23:45:22 34° ENE 23:45:22 34° ENE 23:48:45 10° NNE
Cosmos 1503 Rocket 4.0 23:45:55 82° ENE 23:45:55 82° ENE 23:51:09 10° NNE
Cosmos 1072 Rocket 4.2 23:46:51 76° S 23:47:23 89° E 23:53:32 10° N
Cosmos 2322 Rocket 4.2 23:45:28 10° WNW 23:48:01 15° W 23:48:01 15° W
Helios 1A 4.1 23:49:48 40° NW 23:49:48 40° NW 23:52:44 10° NNW
SL-16 R/B 4.1 23:46:15 16° ESE 23:50:01 29° ENE 23:55:16 10° N
Cosmos 1486 Rocket 4.5 23:52:11 49° WNW 23:52:30 50° WNW 23:57:36 10° NNE
CZ-2D R/B 4.0 23:50:17 10° NE 23:54:00 18° E 23:54:54 18° ESE
SL-16 R/B 4.2 23:49:31 10° N 23:54:03 23° NE 23:58:33 10° E
Sich 1 Rocket 4.2 23:55:31 54° NNE 23:55:31 54° NNE 23:59:01 10° NNE
